• Join FlightAware (Why Join?)
  • Login
  • US Flag 
01:52AM EDT


 

Airport Tracker/Info


-or-


 

Live Flight TrackerFlight Track Log ✈ N789EX ✈ 17-Apr-2014 ✈ KMHR - KBFI

Flight Track Log - Related Links

Times and Time Zones

All times are in EDT time to prevent confusion due to time zone crossing. See the N789EX flight status page for this flight to view local times or setup timezone preferences in your user account.

Time Position Orientation Groundspeed Altitude Reporting Facility
EDT Latitude Longitude Course Direction KTS MPH feet Rate Location/Type
05:05PM 38.5467 -121.3105 230° Southwest 171 197 1,300  Level FlightAware ADS-B
05:05PM 38.5324 -121.3166 171° South 174 200 2,500 3,120 Climbing FlightAware ADS-B
05:06PM 38.5206 -121.3027 113° Southeast 203 234 3,400 3,480 Climbing FlightAware ADS-B
05:07PM 38.5206 -121.2236 42° Northeast 247 284 7,200 3,480 Climbing FlightAware ADS-B
05:07PM 38.5409 -121.2143 North 261 300 8,100 2,220 Climbing FlightAware ADS-B
05:07PM 38.5658 -121.2245 335° Northwest 290 334 8,700 2,220 Climbing FlightAware ADS-B
05:08PM 38.5903 -121.2384 335° Northwest 298 343 9,600 3,480 Climbing FlightAware ADS-B
05:08PM 38.6354 -121.2670 333° Northwest 339 390 11,600 2,100 Climbing FlightAware ADS-B (KDMW)
05:09PM 38.7041 -121.3115 333° Northwest 419 482 12,200 1,920 Climbing FlightAware ADS-B (KDMW)
05:09PM 38.7569 -121.3456 333° Northwest 438 504 14,100 2,400 Climbing FlightAware ADS-B (KDMW)
05:10PM 38.8144 -121.3832 332° Northwest 448 516 14,900 2,520 Climbing FlightAware ADS-B
05:11PM 38.9756 -121.4637 350° North 472 543 18,900 2,760 Climbing FlightAware ADS-B
05:12PM 39.1078 -121.4853 352° North 492 566 21,500 2,160 Climbing FlightAware ADS-B
05:13PM 39.1995 -121.5001 353° North 512 589 22,500 1,680 Climbing FlightAware ADS-B
05:14PM 39.2921 -121.5143 353° North 523 602 23,700 1,680 Climbing FlightAware ADS-B
05:14PM 39.3909 -121.5293 353° North 533 613 24,800 1,620 Climbing FlightAware ADS-B
05:15PM 39.4903 -121.5447 353° North 541 623 25,900 1,560 Climbing FlightAware ADS-B
05:16PM 39.6373 -121.5678 353° North 550 633 27,400 1,500 Climbing FlightAware ADS-B
05:17PM 39.7876 -121.5912 353° North 546 628 28,900 1,500 Climbing FlightAware ADS-B
05:18PM 39.8847 -121.6066 353° North 538 619 30,000 780 Climbing FlightAware ADS-B
05:18PM 39.9793 -121.6215 353° North 536 617 30,000  Level FlightAware ADS-B
05:19PM 40.0820 -121.6378 353° North 537 618 30,000  Level FlightAware ADS-B
05:20PM 40.1777 -121.6530 353° North 536 617 30,000  Level FlightAware ADS-B
05:20PM 40.2776 -121.6684 353° North 538 619 30,000  Level FlightAware ADS-B
05:21PM 40.4103 -121.6878 353° North 538 619 30,000  Level Oakland Center
05:22PM 40.5589 -121.7100 354° North 541 623 30,000  Level Oakland Center
05:23PM 40.7369 -121.7369 353° North 540 621 30,000  Level Oakland Center
05:24PM 40.8847 -121.7611 353° North 540 621 30,000  Level Oakland Center
05:25PM 40.9478 -121.7739 351° North 539 620 30,000  Level Seattle Center
05:26PM 41.1250 -121.8014 353° North 541 623 30,000  Level Seattle Center
05:27PM 41.2475 -121.8217 353° North 541 623 30,000  Level Seattle Center
05:28PM 41.4267 -121.8503 353° North 541 623 30,000  Level Seattle Center
05:29PM 41.5747 -121.8750 353° North 540 621 30,000  Level Seattle Center
05:30PM 41.7253 -121.8989 353° North 543 625 30,000  Level Seattle Center
05:31PM 41.8750 -121.9219 353° North 543 625 30,000  Level Seattle Center
05:32PM 42.0200 -121.9458 353° North 543 625 30,000  Level Seattle Center
05:33PM 42.1611 -121.9675 354° North 543 625 30,000  Level Seattle Center
05:34PM 42.3403 -121.9972 353° North 542 624 30,000  Level Seattle Center
05:35PM 42.4917 -122.0219 353° North 545 627 30,000  Level Seattle Center
05:36PM 42.6442 -122.0483 353° North 549 632 30,000  Level Seattle Center
05:42PM 43.5520 -122.2006 353° North 568 654 30,000  Level FlightAware ADS-B (KSLE)
05:42PM 43.6291 -122.2140 353° North 568 654 30,000  Level FlightAware ADS-B (KSLE)
05:43PM 43.8099 -122.2453 353° North 567 652 30,000  Level FlightAware ADS-B (KSLE)
05:44PM 43.8865 -122.2586 353° North 569 655 30,000  Level FlightAware ADS-B (KSLE)
05:45PM 43.9978 -122.2778 353° North 569 655 30,000  Level FlightAware ADS-B (KSLE)
05:45PM 44.1275 -122.3004 353° North 569 655 30,000  Level FlightAware ADS-B (KSLE)
05:46PM 44.2185 -122.3162 353° North 572 658 30,000  Level FlightAware ADS-B (KSLE)
05:47PM 44.3396 -122.3376 353° North 572 658 30,000  Level FlightAware ADS-B (KSLE)
05:47PM 44.4378 -122.3549 353° North 573 659 30,000  Level FlightAware ADS-B (KSLE)
05:48PM 44.5429 -122.3735 353° North 573 659 30,000  Level FlightAware ADS-B (KSLE)
05:49PM 44.6470 -122.3920 353° North 574 661 30,000  Level FlightAware ADS-B (KSLE)
05:50PM 44.7570 -122.4116 353° North 574 661 30,000  Level FlightAware ADS-B (KSLE)
05:50PM 44.8165 -122.4220 353° North 575 662 30,000  Level FlightAware ADS-B
05:50PM 44.8614 -122.4302 353° North 576 663 30,000  Level FlightAware ADS-B (KSLE)
05:50PM 44.9157 -122.4400 353° North 575 662 30,000  Level FlightAware ADS-B
05:51PM 44.9715 -122.4501 353° North 575 662 30,000  Level FlightAware ADS-B (KSLE)
05:51PM 45.0000 -122.4550 353° North 575 662 30,000  Level FlightAware ADS-B
05:51PM 45.0701 -122.4677 353° North 575 662 30,000  Level FlightAware ADS-B (KSLE)
05:52PM 45.0849 -122.4700 353° North 575 662 30,000  Level FlightAware ADS-B
05:52PM 45.1661 -122.4850 353° North 576 663 30,000  Level FlightAware ADS-B
05:52PM 45.1646 -122.4847 353° North 576 663 30,000  Level FlightAware ADS-B (KSLE)
05:53PM 45.2459 -122.5000 353° North 577 664 30,000  Level FlightAware ADS-B
05:53PM 45.2850 -122.5066 353° North 577 664 30,000  Level FlightAware ADS-B (KSLE)
05:53PM 45.3665 -122.5210 353° North 578 665 30,000  Level FlightAware ADS-B
05:54PM 45.3920 -122.5261 353° North 578 665 30,000  Level FlightAware ADS-B (KSLE)
05:54PM 45.4651 -122.5400 353° North 578 665 30,000  Level FlightAware ADS-B
05:54PM 45.5446 -122.5540 353° North 579 666 30,000  Level FlightAware ADS-B
05:54PM 45.5504 -122.5552 353° North 579 666 30,000  Level FlightAware ADS-B (KSLE)
05:55PM 45.6568 -122.5751 353° North 576 663 30,000  Level FlightAware ADS-B (KSLE)
05:55PM 45.7007 -122.5830 353° North 577 664 30,000  Level FlightAware ADS-B
05:56PM 45.7504 -122.5921 352° North 578 665 30,000  Level FlightAware ADS-B (KSLE)
05:56PM 45.7817 -122.5980 352° North 577 664 30,000  Level FlightAware ADS-B
05:56PM 45.8603 -122.6180 350° North 575 662 30,000  Level FlightAware ADS-B
05:57PM 45.8708 -122.6204 350° North 577 664 30,000  Level FlightAware ADS-B (KSLE)
05:57PM 45.9411 -122.6390 350° North 577 664 30,000 -180 Level FlightAware ADS-B
05:57PM 45.9484 -122.6406 350° North 576 663 29,900 -300 Descending FlightAware ADS-B (KSLE)
05:57PM 46.0005 -122.6520 353° North 577 664 29,900 -780 Level FlightAware ADS-B
05:58PM 46.0611 -122.6600 357° North 575 662 29,500 -1,260 Descending FlightAware ADS-B
05:58PM 46.0769 -122.6609 358° North 571 657 29,300 -1,800 Descending FlightAware ADS-B (KSLE)
05:58PM 46.1043 -122.6610 North 567 652 29,000 -2,400 Descending FlightAware ADS-B
05:58PM 46.1298 -122.6606 North 563 648 28,500 -2,640 Descending FlightAware ADS-B (KSLE)
05:58PM 46.1819 -122.6570 North 554 638 27,700 -2,400 Descending FlightAware ADS-B
05:59PM 46.2575 -122.6520 North 540 621 26,500 -2,580 Descending FlightAware ADS-B
05:59PM 46.2540 -122.6518 North 537 618 26,000 -2,400 Descending FlightAware ADS-B (KSLE)
05:59PM 46.3316 -122.6460 North 532 612 25,300 -2,400 Descending FlightAware ADS-B
06:00PM 46.4057 -122.6400 North 518 596 24,000 -2,520 Descending FlightAware ADS-B
06:00PM 46.4290 -122.6386 North 514 592 23,600 -2,160 Descending FlightAware ADS-B (KSLE)
06:01PM 46.4771 -122.6350 North 507 583 22,900 -2,400 Descending FlightAware ADS-B
06:01PM 46.5472 -122.6300 North 492 566 21,600 -2,400 Descending FlightAware ADS-B
06:01PM 46.5680 -122.6287 North 486 559 21,300 -2,220 Descending FlightAware ADS-B (KSLE)
06:02PM 46.6149 -122.6250 North 475 547 20,500 -3,000 Descending FlightAware ADS-B
06:02PM 46.6354 -122.6234 North 468 539 19,700 -2,340 Descending FlightAware ADS-B (KSLE)
06:02PM 46.6811 -122.6200 North 464 534 19,300 -1,800 Descending FlightAware ADS-B
06:03PM 46.7457 -122.6150 North 451 519 18,200 -2,220 Descending FlightAware ADS-B
06:03PM 46.8078 -122.6110 North 442 509 17,100 -2,340 Descending FlightAware ADS-B
06:03PM 46.8434 -122.6087 North 432 497 16,300 -2,340 Descending FlightAware ADS-B (CYVR)
06:04PM 46.8700 -122.6070 North 429 494 15,900 -2,100 Descending FlightAware ADS-B
06:04PM 46.8929 -122.6049 North 428 493 15,200 -2,340 Descending FlightAware ADS-B (CYVR)
06:04PM 46.9318 -122.6020 North 425 489 14,700 -2,520 Descending FlightAware ADS-B
06:05PM 46.9743 -122.5992 North 419 482 13,600 -2,340 Descending FlightAware ADS-B (CYVR)
06:05PM 46.9910 -122.5980 North 420 483 13,500 -1,320 Descending FlightAware ADS-B
06:05PM 47.0484 -122.5940 North 397 457 12,900 -900 Descending FlightAware ADS-B
06:05PM 47.0808 -122.5913 North 379 436 12,800 -420 Descending FlightAware ADS-B (CYVR)
06:06PM 47.1019 -122.5900 North 369 425 12,700 -600 Descending FlightAware ADS-B
06:06PM 47.1519 -122.5860 North 346 398 12,400 -540 Descending FlightAware ADS-B
06:06PM 47.1617 -122.5854 North 341 392 12,400 -300 Level FlightAware ADS-B (CYVR)
06:07PM 47.1890 -122.5830 North 330 380 12,300 -480 Descending FlightAware ADS-B
06:07PM 47.1996 -122.5820 North 329 379 12,200 -480 Descending FlightAware ADS-B
06:07PM 47.1951 -122.5827 15° North 327 376 12,200 -780 Level FlightAware ADS-B (CYVR)
06:07PM 47.2123 -122.5770 16° North 327 376 12,100 -480 Descending FlightAware ADS-B
06:07PM 47.2268 -122.5690 25° Northeast 328 377 12,100  Level FlightAware ADS-B
06:07PM 47.2361 -122.5610 31° Northeast 329 379 12,100  Level FlightAware ADS-B
06:07PM 47.2493 -122.5470 40° Northeast 329 379 12,100  Level FlightAware ADS-B
06:08PM 47.2327 -122.5642 41° Northeast 326 375 12,100  Level FlightAware ADS-B (CYVR)
06:08PM 47.2835 -122.5020 41° Northeast 326 375 12,100  Level FlightAware ADS-B
06:08PM 47.3123 -122.4660 38° Northeast 328 377 12,100  Level FlightAware ADS-B
06:08PM 47.3183 -122.4600 32° Northeast 328 377 12,100  Level FlightAware ADS-B
06:08PM 47.3256 -122.4550 24° Northeast 326 375 12,100 -780 Level FlightAware ADS-B
06:08PM 47.3302 -122.4520 19° North 325 374 12,000 -1,380 Descending FlightAware ADS-B
06:08PM 47.3383 -122.4500 10° North 320 368 11,900 -1,740 Descending FlightAware ADS-B
06:08PM 47.3400 -122.4492 North 317 365 11,800 -2,040 Descending FlightAware ADS-B (CYWH)
06:09PM 47.3479 -122.4480 North 314 361 11,700 -2,040 Descending FlightAware ADS-B
06:09PM 47.3564 -122.4480 North 308 354 11,400 -2,160 Descending FlightAware ADS-B
06:09PM 47.3977 -122.4470 North 282 325 10,400 -2,280 Descending FlightAware ADS-B
06:09PM 47.4175 -122.4470 North 275 316 9,700 -2,520 Descending FlightAware ADS-B
06:10PM 47.4367 -122.4460 North 267 307 9,100 -2,520 Descending FlightAware ADS-B
06:10PM 47.4551 -122.4460 North 263 303 8,400 -2,220 Descending FlightAware ADS-B
06:10PM 47.4735 -122.4460 North 250 288 8,000 -1,620 Descending FlightAware ADS-B
06:10PM 47.4893 -122.4460 North 229 264 7,600 -1,680 Descending FlightAware ADS-B
06:11PM 47.4925 -122.4460 359° North 226 260 7,500 -2,040 Descending FlightAware ADS-B
06:11PM 47.4961 -122.4460 356° North 221 254 7,400 -1,500 Descending FlightAware ADS-B
06:11PM 47.5007 -122.4470 349° North 216 249 7,300 -1,500 Descending FlightAware ADS-B
06:11PM 47.5041 -122.4480 345° North 212 244 7,200 -2,280 Descending FlightAware ADS-B
06:11PM 47.5084 -122.4500 341° North 208 239 7,000 -2,220 Descending FlightAware ADS-B
06:11PM 47.5133 -122.4530 338° Northwest 204 235 6,800 -1,920 Descending FlightAware ADS-B
06:11PM 47.5248 -122.4600 336° Northwest 200 230 6,400 -2,100 Descending FlightAware ADS-B
06:11PM 47.5376 -122.4690 335° Northwest 192 221 5,800 -2,340 Descending FlightAware ADS-B
06:12PM 47.5497 -122.4780 334° Northwest 189 217 5,200 -2,580 Descending FlightAware ADS-B
06:12PM 47.5578 -122.4840 333° Northwest 186 214 4,700 -2,580 Descending FlightAware ADS-B
06:12PM 47.5696 -122.4920 333° Northwest 185 213 4,100 -2,520 Descending FlightAware ADS-B
06:12PM 47.5766 -122.4980 334° Northwest 185 213 3,700 -2,520 Descending FlightAware ADS-B
06:12PM 47.5831 -122.5020 335° Northwest 185 213 3,400 -2,400 Descending FlightAware ADS-B
06:13PM 47.5949 -122.5100 335° Northwest 190 219 2,800 -1,980 Descending FlightAware ADS-B
06:13PM 47.6071 -122.5190 334° Northwest 190 219 2,400 -1,200 Descending FlightAware ADS-B
06:13PM 47.6143 -122.5240 335° Northwest 188 216 2,300 -60 Descending FlightAware ADS-B
06:16PM 47.7383 -122.5290 50° Northeast 198 228 2,300  Level FlightAware ADS-B
06:16PM 47.7434 -122.5110 82° East 167 192 2,300  Level FlightAware ADS-B
06:16PM 47.7432 -122.5070 93° East 164 189 2,300  Level FlightAware ADS-B
06:16PM 47.7424 -122.5010 102° East 159 183 2,300  Level FlightAware ADS-B
06:16PM 47.7413 -122.4950 106° East 156 180 2,300  Level FlightAware ADS-B
06:17PM 47.7328 -122.4750 139° Southeast 145 167 2,300  Level FlightAware ADS-B
06:18PM 47.7066 -122.4520 151° Southeast 132 152 2,300  Level FlightAware ADS-B
06:18PM 47.6963 -122.4430 151° Southeast 132 152 2,300  Level FlightAware ADS-B
06:18PM 47.6872 -122.4360 150° Southeast 130 150 2,300  Level FlightAware ADS-B
06:19PM 47.6662 -122.4180 150° Southeast 130 150 2,300  Level FlightAware ADS-B
06:19PM 47.6548 -122.4080 150° Southeast 124 143 2,300  Level FlightAware ADS-B
06:19PM 47.6468 -122.4010 150° Southeast 125 144 2,300  Level FlightAware ADS-B
06:20PM 47.6389 -122.3950 150° Southeast 125 144 2,300  Level FlightAware ADS-B
06:20PM 47.6320 -122.3890 150° Southeast 128 147 2,300 -240 Level FlightAware ADS-B
06:20PM 47.6242 -122.3820 150° Southeast 128 147 2,200 -840 Descending FlightAware ADS-B
06:21PM 47.6082 -122.3690 150° Southeast 129 148 1,700 -780 Descending FlightAware ADS-B
06:21PM 47.5882 -122.3520 150° Southeast 130 150 1,300 -780 Descending FlightAware ADS-B
06:22PM 47.5628 -122.3317 150° Southeast 129 148 600 -780 Descending Seattle Center
06:23PM 47.5481 -122.3181 148° Southeast 127 146 200 6,900 Descending Seattle Center
06:24PM 47.5122 -122.2853 148° Southeast 127 146 12,000 11,580 Climbing Seattle Center